F5INV-13 Weather Reports


Display with metric or nautical units.
time (UTC)temp
F
wind
direction
speed
MPH
gust
MPH
rain 1hr
in
rain 24hr
in
rain mn
in
humidity
%
barometer
mb
20260506114505 63 233 10.0 19.0 0.00 0.29 0.00 59 1007.4
20260506114005 63 234 9.0 19.0 0.00 0.29 0.00 59 1007.4
20260506113505 63 216 9.0 15.0 0.00 0.29 0.00 59 1007.4
20260506113004 64 228 10.0 18.0 0.00 0.29 0.00 57 1007.4
20260506112504 60 237 9.0 18.0 0.00 0.29 0.00 66 1007.4
20260506112005 60 233 9.0 17.0 0.00 0.29 0.00 66 1007.4
20260506111504 60 241 10.0 15.0 0.00 0.29 0.00 66 1007.4
20260506111004 60 258 10.0 19.0 0.00 0.29 0.00 66 1008.4
20260506110505 60 258 11.0 19.0 0.00 0.29 0.00 66 1008.4
20260506110005 60 255 9.0 14.0 0.00 0.29 0.00 66 1008.4
20260506105505 60 242 9.0 17.0 0.00 0.29 0.00 66 1008.4
20260506105004 60 221 7.0 17.0 0.00 0.29 0.00 66 1008.4
20260506104505 60 232 5.0 12.0 0.00 0.29 0.00 66 1008.4
20260506104004 60 231 6.0 12.0 0.00 0.29 0.00 66 1008.4
20260506103004 63 234 7.0 15.0 0.00 0.29 0.00 63 1008.4
20260506102504 63 232 8.0 15.0 0.00 0.29 0.00 63 1008.4
20260506102005 63 233 7.0 14.0 0.00 0.29 0.00 63 1008.4
20260506101504 63 231 7.0 14.0 0.00 0.29 0.00 63 1008.4
20260506101005 63 220 7.0 12.0 0.00 0.29 0.00 63 1008.4
20260506100504 63 214 8.0 14.0 0.00 0.29 0.00 63 1008.4
20260506100005 61 213 8.0 14.0 0.00 0.29 0.00 67 1008.4
20260506095505 61 228 7.0 13.0 0.00 0.29 0.00 67 1008.4
20260506095004 61 245 8.0 14.0 0.00 0.29 0.00 67 1008.4
20260506094504 61 254 8.0 14.0 0.00 0.29 0.00 67 1008.4
20260506094005 61 251 7.0 14.0 0.00 0.29 0.00 67 1008.4
20260506093505 61 245 8.0 14.0 0.00 0.29 0.00 67 1008.4
20260506093005 61 239 8.0 14.0 0.00 0.29 0.00 67 1008.4
20260506092504 61 238 7.0 16.0 0.00 0.29 0.00 67 1008.4
20260506092004 61 239 7.0 16.0 0.00 0.29 0.00 67 1008.4
20260506091504 58 237 8.0 14.0 0.00 0.29 0.00 73 1008.4
20260506091004 58 235 7.0 13.0 0.00 0.29 0.00 73 1008.4
20260506090504 58 238 8.0 18.0 0.00 0.29 0.00 73 1008.4
20260506090005 58 241 8.0 18.0 0.00 0.29 0.00 73 1008.4
20260506085505 58 238 8.0 17.0 0.00 0.29 0.00 73 1008.4
20260506085004 58 233 9.0 17.0 0.00 0.29 0.00 73 1008.4
20260506084505 58 228 9.0 17.0 0.00 0.29 0.00 73 1008.4
20260506084005 58 230 9.0 17.0 0.00 0.29 0.00 73 1008.4
20260506083505 58 237 9.0 17.0 0.00 0.29 0.00 73 1008.4
20260506083005 58 241 8.0 17.0 0.00 0.29 0.00 73 1008.4
20260506082504 58 235 8.0 17.0 0.00 0.29 0.00 73 1008.4
20260506082004 58 230 8.0 18.0 0.00 0.29 0.00 73 1008.4
20260506081504 58 230 8.0 18.0 0.00 0.29 0.00 79 1008.4
20260506081005 58 233 7.0 14.0 0.00 0.29 0.00 79 1008.4
20260506080504 56 244 8.0 15.0 0.00 0.29 0.00 81 1008.4
20260506073505 51 249 10.0 18.0 0.00 0.29 0.00 91 1008.4
20260506073005 51 252 8.0 17.0 0.00 0.29 0.00 91 1008.4
20260506072504 51 250 6.0 12.0 0.00 0.29 0.00 91 1008.4
20260506072004 51 252 6.0 13.0 0.00 0.29 0.00 91 1008.4
20260506071504 51 250 7.0 15.0 0.00 0.29 0.00 91 1008.4
20260506071005 51 244 7.0 15.0 0.00 0.29 0.00 91 1008.4
20260506070504 51 240 7.0 13.0 0.00 0.29 0.00 91 1008.4
20260506062505 49 230 8.0 13.0 0.00 0.29 0.00 97 1008.4
20260506062004 49 233 6.0 11.0 0.00 0.29 0.00 97 1008.4
20260506061504 49 235 6.0 10.0 0.00 0.29 0.00 97 1008.4
20260506061005 49 251 5.0 11.0 0.00 0.29 0.00 97 1007.4
20260506060504 49 235 5.0 11.0 0.00 0.29 0.00 97 1007.4
20260506051004 49 241 5.0 11.0 0.00 0.29 0.00 97 1007.4
20260506050505 48 244 6.0 11.0 0.00 0.29 0.00 97 1007.4
20260506045005 48 249 6.0 10.0 0.00 0.29 0.00 97 1007.4
20260506044505 48 248 5.0 11.0 0.00 0.29 0.00 97 1007.4
20260506044005 48 241 5.0 11.0 0.00 0.29 0.00 97 1007.4
20260506043505 48 239 6.0 11.0 0.00 0.29 0.00 97 1007.4
20260506043005 48 232 6.0 12.0 0.00 0.29 0.00 97 1007.4
20260506042505 48 231 6.0 12.0 0.00 0.29 0.00 97 1007.4
20260506042005 48 234 6.0 12.0 0.00 0.29 0.00 97 1007.4
20260506041505 48 235 4.0 11.0 0.00 0.29 0.00 97 1007.4
20260506041004 48 234 4.0 8.0 0.00 0.29 0.00 97 1006.4
20260506040505 47 234 3.0 8.0 0.00 0.29 0.00 97 1006.4
20260506040005 47 232 3.0 7.0 0.00 0.29 0.00 96 1006.4
20260506035505 47 226 3.0 8.0 0.00 0.29 0.00 96 1006.4
20260506035004 47 225 2.0 8.0 0.00 0.29 0.00 96 1006.4
20260506034505 47 217 2.0 6.0 0.00 0.29 0.00 96 1006.4
20260506034005 47 210 1.0 7.0 0.00 0.29 0.00 96 1007.4
20260506033505 47 209 1.0 7.0 0.00 0.29 0.00 96 1007.4
20260506033005 48 195 1.0 7.0 0.00 0.29 0.00 96 1007.4
20260506032505 48 208 2.0 7.0 0.00 0.29 0.00 96 1007.4
20260506032005 48 220 2.0 6.0 0.00 0.29 0.00 96 1007.4
20260506031505 48 230 2.0 6.0 0.00 0.29 0.00 96 1007.4
20260506031005 48 228 2.0 5.0 0.00 0.29 0.00 96 1007.4
20260506030505 48 241 1.0 5.0 0.00 0.29 0.00 96 1007.4
20260506030005 48 237 1.0 5.0 0.00 0.29 0.00 96 1007.4
20260506025504 48 224 1.0 5.0 0.00 0.29 0.00 96 1007.4
20260506025005 48 233 1.0 4.0 0.00 0.29 0.00 96 1007.4
20260506024505 48 249 2.0 6.0 0.00 0.29 0.00 96 1007.4
20260506024005 48 250 2.0 8.0 0.00 0.29 0.00 96 1007.4
20260506023505 48 246 2.0 8.0 0.00 0.29 0.00 96 1007.4
20260506023004 48 233 2.0 7.0 0.00 0.29 0.00 96 1007.4
20260506022505 48 220 2.0 7.0 0.00 0.29 0.00 96 1007.4
20260506022005 48 217 2.0 6.0 0.00 0.29 0.00 96 1007.4
20260506021505 49 249 3.0 8.0 0.00 0.29 0.00 96 1007.4
20260506021005 49 249 3.0 8.0 0.00 0.29 0.00 96 1007.4
20260506020504 49 237 4.0 9.0 0.00 0.29 0.00 96 1007.4
20260506020005 49 244 3.0 9.0 0.00 0.29 0.00 96 1007.4
20260506015504 49 246 2.0 8.0 0.00 0.29 0.00 96 1006.4
20260506015005 49 240 2.0 6.0 0.00 0.29 0.00 96 1006.4
20260506014505 49 246 3.0 6.0 0.00 0.29 0.00 96 1006.4
20260506014005 49 255 3.0 9.0 0.00 0.29 0.00 96 1007.4
20260506013504 49 252 4.0 9.0 0.00 0.29 0.00 96 1007.4
20260506013005 49 241 4.0 8.0 0.00 0.29 0.00 96 1007.4
20260506012504 49 237 4.0 8.0 0.00 0.29 0.00 96 1007.4
20260506012005 49 234 3.0 8.0 0.00 0.29 0.00 96 1007.4
20260506011504 49 236 4.0 8.0 0.00 0.29 0.00 96 1007.4
20260506011005 49 241 3.0 8.0 0.00 0.29 0.00 96 1007.4
20260506010504 49 243 2.0 7.0 0.00 0.29 0.00 96 1007.4
20260506010005 49 231 3.0 6.0 0.00 0.29 0.00 96 1007.4
20260506005505 49 222 3.0 6.0 0.00 0.29 0.00 96 1008.4
20260506005004 49 221 2.0 6.0 0.00 0.29 0.00 95 1008.4
20260506004505 49 223 2.0 6.0 0.00 0.29 0.00 95 1008.4
20260506004005 49 215 1.0 6.0 0.00 0.29 0.00 95 1007.4
20260506003505 50 231 1.0 6.0 0.00 0.29 0.00 95 1007.4
20260506003005 50 232 3.0 8.0 0.00 0.29 0.00 95 1007.4
20260506002505 50 233 3.0 8.0 0.00 0.29 0.00 96 1008.4
20260506002004 50 232 3.0 8.0 0.00 0.29 0.00 95 1008.4
20260506001504 50 222 3.0 8.0 0.00 0.29 0.00 95 1008.4
20260506001005 50 225 4.0 8.0 0.00 0.29 0.00 95 1008.4
20260506000504 50 228 5.0 10.0 0.00 0.29 0.00 95 1008.4
20260506000006 50 225 5.0 10.0 0.00 0.29 0.00 95 1008.4
20260505235505 50 230 4.0 9.0 0.00 0.29 0.00 95 1008.4
20260505235005 50 235 4.0 8.0 0.00 0.29 0.00 95 1008.4
20260505234505 50 235 4.0 8.0 0.00 0.29 0.00 95 1008.4
20260505234004 50 241 3.0 8.0 0.00 0.29 0.00 95 1008.4
20260505233504 50 240 3.0 8.0 0.00 0.29 0.00 96 1008.4
20260505233005 50 237 3.0 8.0 0.00 0.29 0.00 96 1008.4
20260505232505 50 234 2.0 8.0 0.00 0.29 0.00 96 1007.4
20260505232004 50 237 2.0 8.0 0.00 0.29 0.00 96 1007.4
20260505231505 50 239 3.0 7.0 0.00 0.29 0.00 96 1007.4
20260505231005 50 235 3.0 7.0 0.00 0.29 0.00 96 1008.4
20260505230504 50 232 3.0 8.0 0.00 0.29 0.00 96 1008.4
20260505230005 50 228 2.0 8.0 0.00 0.29 0.00 95 1008.4
20260505225505 50 232 1.0 7.0 0.00 0.29 0.00 95 1007.4
20260505225005 50 229 0.0 5.0 0.00 0.29 0.00 95 1007.4
20260505224505 50 225 0.0 2.0 0.00 0.29 0.00 95 1007.4
20260505224004 50 225 0.0 2.0 0.00 0.29 0.00 95 1008.4
20260505223505 50 238 0.0 3.0 0.00 0.29 0.00 95 1008.4
20260505223005 51 221 0.0 4.0 0.00 0.29 0.00 95 1008.4
20260505222505 51 218 1.0 5.0 0.00 0.29 0.00 95 1007.4
20260505222004 51 227 0.0 5.0 0.00 0.29 0.00 95 1007.4
20260505221505 51 255 0.0 6.0 0.00 0.29 0.00 95 1007.4
20260505221005 51 236 1.0 6.0 0.00 0.29 0.00 95 1008.4
20260505220505 51 231 1.0 5.0 0.00 0.29 0.00 95 1008.4
20260505220008 51 235 1.0 5.0 0.00 0.29 0.00 95 1008.4
20260505215505 51 205 1.0 5.0 0.00 0.29 0.29 95 1008.4
20260505215005 51 205 1.0 6.0 0.00 0.29 0.29 95 1008.4
20260505214505 51 215 2.0 8.0 0.00 0.29 0.29 95 1008.4
20260505214004 51 212 3.0 8.0 0.00 0.29 0.29 96 1008.4
20260505213505 52 208 1.0 8.0 0.00 0.29 0.29 96 1008.4
20260505213005 52 224 1.0 7.0 0.00 0.29 0.29 95 1008.4
20260505212505 52 218 1.0 7.0 0.00 0.29 0.29 96 1007.4
20260505212005 52 200 1.0 5.0 0.00 0.29 0.29 96 1007.4
20260505211504 51 193 1.0 7.0 0.00 0.29 0.29 93 1007.4
20260505211005 51 194 1.0 7.0 0.00 0.29 0.29 93 1007.4
20260505210505 51 221 0.0 5.0 0.00 0.29 0.29 93 1007.4
20260505210005 51 227 0.0 5.0 0.00 0.29 0.29 93 1007.4
20260505205505 51 227 0.0 5.0 0.00 0.29 0.29 93 1007.4
20260505205004 51 0 0.0 0.0 0.00 0.29 0.29 93 1007.4
20260505204505 51 0 0.0 0.0 0.00 0.29 0.29 93 1007.4
20260505204005 51 0 0.0 0.0 0.00 0.29 0.29 93 1008.4
20260505203505 51 0 0.0 0.0 0.00 0.29 0.29 93 1008.4
20260505203005 51 0 0.0 0.0 0.00 0.29 0.29 93 1008.4
20260505202505 51 0 0.0 0.0 0.00 0.29 0.29 93 1009.4
20260505202005 51 0 0.0 0.0 0.00 0.29 0.29 93 1009.4
20260505201505 51 0 0.0 0.0 0.00 0.29 0.29 93 1009.4
20260505201005 51 0 0.0 0.0 0.00 0.29 0.29 93 1008.4
20260505200505 51 0 0.0 0.0 0.00 0.29 0.29 93 1008.4
20260505200005 54 0 0.0 0.0 0.00 0.29 0.29 95 1008.4
20260505195505 54 0 0.0 0.0 0.00 0.29 0.29 95 1008.4
20260505195005 54 0 0.0 0.0 0.00 0.29 0.29 95 1008.4
20260505194505 54 0 0.0 0.0 0.00 0.29 0.29 95 1008.4
20260505194005 54 0 0.0 0.0 0.00 0.29 0.29 95 1008.4
20260505193504 54 0 0.0 0.0 0.00 0.29 0.29 95 1008.4
20260505193005 54 0 0.0 0.0 0.00 0.29 0.29 95 1008.4
20260505192504 54 0 0.0 0.0 0.00 0.29 0.29 95 1008.4
20260505192005 54 0 0.0 0.0 0.00 0.34 0.29 95 1008.4
20260505191505 54 0 0.0 0.0 0.00 0.34 0.29 95 1008.4
20260505191005 54 0 0.0 0.0 0.00 0.34 0.29 95 1007.4
20260505190504 54 158 0.0 2.0 0.00 0.34 0.29 95 1007.4
20260505190005 54 158 0.0 2.0 0.00 0.34 0.29 95 1007.4
20260505185504 54 0 0.0 0.0 0.00 0.34 0.29 95 1007.4
20260505185005 54 192 0.0 3.0 0.00 0.34 0.29 95 1007.4
20260505184504 54 208 0.0 3.0 0.00 0.34 0.29 95 1007.4
20260505184005 54 248 0.0 2.0 0.00 0.34 0.29 95 1007.4
20260505183504 54 203 0.0 3.0 0.00 0.34 0.29 95 1007.4
20260505183005 54 199 1.0 6.0 0.00 0.39 0.29 95 1007.4
20260505182505 54 215 1.0 6.0 0.00 0.39 0.29 95 1007.4
20260505182005 54 231 3.0 8.0 0.00 0.39 0.29 95 1007.4
20260505181505 54 239 4.0 11.0 0.00 0.39 0.29 95 1007.4
20260505181005 54 236 5.0 11.0 0.00 0.44 0.29 95 1007.4
20260505180505 54 220 4.0 10.0 0.00 0.49 0.29 95 1007.4
20260505180006 54 215 3.0 10.0 0.00 0.49 0.29 95 1007.4
20260505175504 54 234 4.0 10.0 0.00 0.49 0.29 95 1007.4
20260505175005 54 243 5.0 10.0 0.00 0.57 0.29 95 1007.4
20260505174505 54 248 5.0 9.0 0.00 0.57 0.29 95 1007.4
20260505174005 54 241 5.0 10.0 0.00 0.67 0.29 95 1007.4
20260505173504 54 250 7.0 12.0 0.00 0.72 0.29 95 1007.4
20260505173005 54 254 6.0 12.0 0.00 0.72 0.29 95 1007.4
20260505172505 54 235 5.0 9.0 0.00 0.77 0.29 95 1007.4
20260505172005 54 225 5.0 9.0 0.00 0.82 0.29 95 1007.4
20260505171505 54 219 4.0 9.0 0.00 0.82 0.29 95 1007.4
20260505171005 54 218 3.0 7.0 0.00 0.82 0.29 95 1008.4
20260505170505 54 230 3.0 7.0 0.00 0.82 0.29 93 1008.4
20260505170005 54 234 2.0 7.0 0.00 0.82 0.29 94 1008.4
20260505165505 54 223 1.0 5.0 0.07 0.82 0.29 94 1008.4
20260505165005 54 212 2.0 5.0 0.07 0.82 0.29 93 1008.4
20260505164504 53 205 2.0 5.0 0.07 0.82 0.29 93 1008.4
20260505164005 53 196 2.0 8.0 0.07 0.82 0.29 93 1008.4
20260505163505 53 196 2.0 8.0 0.07 0.82 0.29 93 1008.4
20260505163005 54 210 1.0 8.0 0.13 0.82 0.29 93 1008.4
20260505162505 54 221 1.0 3.0 0.13 0.82 0.29 93 1008.4
20260505162005 54 232 1.0 7.0 0.13 0.82 0.29 92 1008.4
20260505161505 54 237 2.0 7.0 0.13 0.82 0.29 92 1008.4
20260505161005 54 252 3.0 8.0 0.13 0.82 0.29 92 1008.4
20260505160504 54 252 4.0 8.0 0.19 0.82 0.29 92 1008.4
20260505153006 54 240 8.0 13.0 0.09 0.74 0.16 90 1008.4
20260505152504 54 247 8.0 17.0 0.09 0.74 0.16 90 1007.4
20260505152005 54 256 8.0 17.0 0.09 0.74 0.16 90 1007.4
20260505151505 54 255 8.0 16.0 0.09 0.74 0.16 89 1007.4
20260505151004 54 243 7.0 11.0 0.09 0.74 0.16 89 1007.4
20260505150504 55 251 10.0 17.0 0.04 0.69 0.11 88 1007.4
20260505140505 60 273 13.0 26.0 0.07 1.10 0.07 76 1006.4
20260505125005 69 272 7.0 14.0 0.00 1.26 0.00 56 1005.3
20260505124504 68 241 5.0 11.0 0.00 1.26 0.00 58 1005.3
20260505124005 68 231 5.0 9.0 0.00 1.26 0.00 55 1005.3
20260505123505 68 222 4.0 9.0 0.00 1.26 0.00 57 1005.3
20260505123005 68 224 4.0 9.0 0.00 1.26 0.00 56 1005.3
20260505122504 68 227 4.0 9.0 0.00 1.26 0.00 56 1007.4
20260505122005 67 214 4.0 8.0 0.00 1.26 0.00 62 1007.4
20260505121505 65 208 5.0 11.0 0.00 1.26 0.00 61 1007.4
20260505121005 66 224 6.0 11.0 0.00 1.26 0.00 58 1006.4
20260505120505 67 253 6.0 11.0 0.00 1.26 0.00 57 1006.4
20260505120004 67 266 6.0 13.0 0.00 1.26 0.00 60 1006.4
20260505115504 68 271 7.0 13.0 0.00 1.26 0.00 60 1007.4
20260505115004 68 278 7.0 13.0 0.00 1.26 0.00 61 1007.4